When you browse on this site, cookies collect data to enhance your experience and personalize the content and advertising you see.
Visit our Privacy Policy to learn more. By continuing to use the site, you agree to this use of cookies and data.
  • In Deutschland
  • Länderverzeichnis
  • Für 7 Tage
  • Wassertemperatur
  • Satellitenkarten
  • Wetterkarte
  • Widgets
  • user-avatar
    Anmelden

    Stündliche Wetter Pinsk

    Heute, 23 März, Samstag

    Zeit Temperatur Niederschläge Wind Luftdruck Luftfeuchtigkeit
    00:00 +1°C° 0 mm 4 m/S 759 mmHg 55%
    01:00 0°C° 0 mm 4 m/S 759 mmHg 56%
    02:00 0°C° 0 mm 3 m/S 759 mmHg 62%
    03:00 0°C° 0 mm 3 m/S 759 mmHg 63%
    04:00 -1°C° 0 mm 3 m/S 759 mmHg 64%
    05:00 -1°C° 0 mm 3 m/S 759 mmHg 65%
    06:00 -1°C° 0 mm 3 m/S 759 mmHg 63%
    07:00 0°C° 0 mm 3 m/S 759 mmHg 60%
    08:00 +1°C° 0 mm 3 m/S 759 mmHg 57%
    09:00 +2°C° 0 mm 3 m/S 759 mmHg 50%
    10:00 +4°C° 0 mm 3 m/S 759 mmHg 43%
    11:00 +7°C° 0 mm 3 m/S 758 mmHg 36%
    12:00 +8°C° 0 mm 3 m/S 758 mmHg 33%
    13:00 +9°C° 0 mm 3 m/S 758 mmHg 30%
    14:00 +10°C° 0 mm 3 m/S 757 mmHg 27%
    15:00 +10°C° 0 mm 2 m/S 757 mmHg 28%
    16:00 +10°C° 0 mm 2 m/S 757 mmHg 29%
    17:00 +10°C° 0 mm 2 m/S 756 mmHg 31%
    18:00 +9°C° 0 mm 2 m/S 756 mmHg 34%
    19:00 +7°C° 0 mm 2 m/S 756 mmHg 38%
    20:00 +7°C° 0 mm 1 m/S 756 mmHg 42%
    21:00 +5°C° 0 mm 2 m/S 755 mmHg 43%
    22:00 +5°C° 0 mm 2 m/S 755 mmHg 44%
    23:00 +5°C° 0 mm 2 m/S 755 mmHg 45%

    Morgen, 24 März, Sonntag

    Zeit Temperatur Niederschläge Wind Luftdruck Luftfeuchtigkeit
    00:00 +3°C° 0 mm 3 m/S 754 mmHg 46%
    01:00 +3°C° 0 mm 3 m/S 754 mmHg 47%
    02:00 +3°C° 0 mm 3 m/S 753 mmHg 47%
    03:00 +3°C° 0.3 mm 4 m/S 753 mmHg 55%
    04:00 +4°C° 0.3 mm 4 m/S 753 mmHg 62%
    05:00 +4°C° 0.3 mm 4 m/S 752 mmHg 69%
    06:00 +4°C° 0.1 mm 4 m/S 752 mmHg 73%
    07:00 +5°C° 0.1 mm 4 m/S 752 mmHg 76%
    08:00 +5°C° 0.1 mm 4 m/S 753 mmHg 79%
    09:00 +6°C° 0 mm 5 m/S 753 mmHg 72%
    10:00 +7°C° 0 mm 5 m/S 753 mmHg 65%
    11:00 +8°C° 0 mm 5 m/S 753 mmHg 58%
    12:00 +9°C° 0 mm 5 m/S 753 mmHg 55%
    13:00 +9°C° 0 mm 5 m/S 753 mmHg 51%
    14:00 +9°C° 0 mm 5 m/S 752 mmHg 47%
    15:00 +10°C° 0 mm 4 m/S 752 mmHg 47%
    16:00 +10°C° 0 mm 4 m/S 752 mmHg 46%
    17:00 +10°C° 0 mm 4 m/S 752 mmHg 46%
    18:00 +8°C° 0 mm 3 m/S 752 mmHg 50%
    19:00 +7°C° 0 mm 3 m/S 751 mmHg 55%
    20:00 +6°C° 0 mm 2 m/S 751 mmHg 60%
    21:00 +6°C° 0 mm 1 m/S 751 mmHg 60%
    22:00 +6°C° 0 mm 1 m/S 751 mmHg 61%
    23:00 +5°C° 0 mm 1 m/S 751 mmHg 61%

    übermorgen, 25 März, Montag

    Zeit Temperatur Niederschläge Wind Luftdruck Luftfeuchtigkeit
    00:00 +5°C° 0 mm 1 m/S 750 mmHg 62%
    01:00 +5°C° 0 mm 1 m/S 750 mmHg 62%
    02:00 +5°C° 0 mm 1 m/S 750 mmHg 63%
    03:00 +4°C° 0 mm 0 m/S 749 mmHg 64%
    04:00 +4°C° 0 mm 0 m/S 749 mmHg 65%
    05:00 +3°C° 0 mm 0 m/S 748 mmHg 65%
    06:00 +4°C° 0 mm 0 m/S 748 mmHg 64%
    07:00 +4°C° 0 mm 0 m/S 748 mmHg 63%
    08:00 +6°C° 0 mm 1 m/S 748 mmHg 62%
    09:00 +7°C° 0 mm 1 m/S 747 mmHg 57%
    10:00 +7°C° 0 mm 2 m/S 747 mmHg 51%
    11:00 +8°C° 0 mm 2 m/S 747 mmHg 46%
    12:00 +9°C° 0.1 mm 2 m/S 746 mmHg 45%
    13:00 +9°C° 0.1 mm 2 m/S 746 mmHg 44%
    14:00 +9°C° 0.1 mm 2 m/S 745 mmHg 44%
    15:00 +9°C° 0.4 mm 2 m/S 745 mmHg 47%
    16:00 +9°C° 0.4 mm 2 m/S 745 mmHg 49%
    17:00 +8°C° 0.4 mm 2 m/S 744 mmHg 52%
    18:00 +7°C° 0.3 mm 2 m/S 745 mmHg 58%
    19:00 +7°C° 0.3 mm 2 m/S 745 mmHg 64%
    20:00 +7°C° 0.3 mm 1 m/S 745 mmHg 70%
    21:00 +6°C° 0 mm 1 m/S 745 mmHg 72%
    22:00 +5°C° 0 mm 1 m/S 745 mmHg 74%
    23:00 +5°C° 0 mm 1 m/S 745 mmHg 77%

    26 März, Dienstag

    Zeit Temperatur Niederschläge Wind Luftdruck Luftfeuchtigkeit
    00:00 +3°C° 0 mm 2 m/S 745 mmHg 78%
    01:00 +3°C° 0 mm 2 m/S 746 mmHg 80%
    02:00 +2°C° 0 mm 2 m/S 746 mmHg 82%
    03:00 +1°C° 0 mm 3 m/S 746 mmHg 83%
    04:00 +1°C° 0 mm 3 m/S 747 mmHg 83%
    05:00 0°C° 0 mm 3 m/S 747 mmHg 84%
    06:00 0°C° 0 mm 4 m/S 747 mmHg 84%
    07:00 0°C° 0 mm 5 m/S 748 mmHg 83%
    08:00 -1°C° 0 mm 6 m/S 749 mmHg 83%
    09:00 +1°C° 0.1 mm 6 m/S 749 mmHg 77%
    10:00 0°C° 0.1 mm 7 m/S 750 mmHg 72%
    11:00 +2°C° 0.1 mm 7 m/S 750 mmHg 67%
    12:00 +3°C° 0 mm 7 m/S 750 mmHg 58%
    13:00 +3°C° 0 mm 7 m/S 750 mmHg 49%
    14:00 +4°C° 0 mm 8 m/S 751 mmHg 40%
    15:00 +4°C° 0 mm 7 m/S 751 mmHg 42%
    16:00 +3°C° 0 mm 7 m/S 751 mmHg 43%
    17:00 +3°C° 0 mm 7 m/S 751 mmHg 44%
    18:00 +2°C° 0 mm 6 m/S 751 mmHg 49%
    19:00 +1°C° 0 mm 5 m/S 751 mmHg 54%
    20:00 0°C° 0 mm 4 m/S 752 mmHg 59%
    21:00 0°C° 0.1 mm 4 m/S 751 mmHg 61%
    22:00 0°C° 0.1 mm 4 m/S 751 mmHg 63%
    23:00 0°C° 0.1 mm 4 m/S 751 mmHg 65%

    27 März, Mittwoch

    Zeit Temperatur Niederschläge Wind Luftdruck Luftfeuchtigkeit
    00:00 0°C° 0 mm 4 m/S 751 mmHg 68%
    01:00 -1°C° 0 mm 4 m/S 751 mmHg 70%
    02:00 -1°C° 0 mm 4 m/S 751 mmHg 72%
    03:00 -2°C° 0 mm 4 m/S 751 mmHg 76%
    04:00 -3°C° 0 mm 4 m/S 752 mmHg 79%
    05:00 -4°C° 0 mm 4 m/S 752 mmHg 83%
    06:00 -3°C° 0 mm 4 m/S 752 mmHg 77%
    07:00 -4°C° 0 mm 5 m/S 753 mmHg 72%
    08:00 -2°C° 0 mm 5 m/S 754 mmHg 66%
    09:00 -1°C° 0 mm 5 m/S 754 mmHg 62%
    10:00 0°C° 0 mm 5 m/S 754 mmHg 58%
    11:00 +1°C° 0 mm 4 m/S 755 mmHg 54%
    12:00 +3°C° 0 mm 4 m/S 755 mmHg 50%
    13:00 +4°C° 0 mm 4 m/S 755 mmHg 46%
    14:00 +5°C° 0 mm 4 m/S 755 mmHg 42%
    15:00 +5°C° 0 mm 4 m/S 755 mmHg 41%
    16:00 +5°C° 0 mm 3 m/S 756 mmHg 40%
    17:00 +5°C° 0 mm 3 m/S 756 mmHg 39%
    18:00 +5°C° 0 mm 2 m/S 756 mmHg 44%
    19:00 +3°C° 0 mm 2 m/S 756 mmHg 48%
    20:00 +3°C° 0 mm 1 m/S 757 mmHg 53%
    21:00 +3°C° 0 mm 1 m/S 757 mmHg 53%
    22:00 +2°C° 0 mm 0 m/S 758 mmHg 53%
    23:00 +3°C° 0 mm 0 m/S 758 mmHg 53%

    28 März, Donnerstag

    Zeit Temperatur Niederschläge Wind Luftdruck Luftfeuchtigkeit
    00:00 +2°C° 0 mm 0 m/S 758 mmHg 54%
    01:00 +2°C° 0 mm 0 m/S 759 mmHg 56%
    02:00 +1°C° 0 mm 0 m/S 759 mmHg 58%
    03:00 +1°C° 0 mm 0 m/S 759 mmHg 58%
    04:00 +2°C° 0 mm 0 m/S 759 mmHg 58%
    05:00 +2°C° 0 mm 0 m/S 759 mmHg 58%
    06:00 +3°C° 0 mm 0 m/S 760 mmHg 57%
    07:00 +3°C° 0 mm 0 m/S 760 mmHg 56%
    08:00 +5°C° 0 mm 1 m/S 760 mmHg 55%
    09:00 +6°C° 0 mm 1 m/S 761 mmHg 54%
    10:00 +8°C° 0 mm 1 m/S 761 mmHg 53%
    11:00 +8°C° 0 mm 2 m/S 761 mmHg 51%
    12:00 +8°C° 0 mm 2 m/S 761 mmHg 50%
    13:00 +9°C° 0 mm 2 m/S 761 mmHg 50%
    14:00 +10°C° 0 mm 2 m/S 761 mmHg 49%
    15:00 +9°C° 0 mm 2 m/S 761 mmHg 50%
    16:00 +9°C° 0 mm 3 m/S 761 mmHg 52%
    17:00 +9°C° 0 mm 3 m/S 760 mmHg 53%
    18:00 +8°C° 0 mm 2 m/S 761 mmHg 58%
    19:00 +7°C° 0 mm 2 m/S 761 mmHg 63%
    20:00 +6°C° 0 mm 2 m/S 761 mmHg 68%
    21:00 +6°C° 0 mm 2 m/S 761 mmHg 72%
    22:00 +5°C° 0 mm 2 m/S 761 mmHg 77%
    23:00 +4°C° 0 mm 2 m/S 761 mmHg 81%
    Mehr zeigen